Home   Weather   Sarpsborg   Past weeks

Flag for Norway Past Weather in Sarpsborg, Norway — Yesterday and Last 2 Weeks

Now
43 °F

Partly sunny.


Feels Like: 40 °F
Forecast: 34 / 45 °F
Wind: 5 mph from North

Location: Rygge

Current Time: Apr 27, 2017 at 1:11:51 pm

Latest Report: Apr 27, 2017 at 12:20 pm


Visibility: N/A

Pressure: 29.77 "Hg

Humidity: 66%

Dew Point: 32 °F

Location of SarpsborgLocation

Past Weather in Sarpsborg — Graph

°F

Sarpsborg Temperature Yesterday

Maximum temperature yesterday: 50 °F (at 3:20 pm)
Minimum temperature yesterday: 37 °F (at 12:20 am)
Average temperature yesterday: 44 °F

High & Low Weather Summary for the Past Weeks

 TemperatureHumidityPressure
High57 °F (Apr 21, 1:50 pm)100% (Apr 13, 1:20 am)30.54 "Hg (Apr 13, 1:20 am)
Low25 °F (Apr 16, 2:50 am)22% (Apr 22, 2:20 pm)29.24 "Hg (Apr 24, 8:50 pm)
Average40 °F65%29.85 "Hg
* Reported Apr 12 12:20 pm — Apr 27 12:20 pm, Sarpsborg, Weather by CustomWeather, © 2017

Note: Actual official high and low records may vary slightly from our data, if they occured in-between our weather recording intervals... More about our weather records

Advertising

Sarpsborg Weather History for the Previous 24 Hours

Scroll right to see more
 ConditionsComfort  
Time TempWeatherWind HumidityBarometerVisibility
12:20 pm
Thu, Apr 27
43 °FPartly sunny.5 mph66%29.77 "HgN/A
11:50 am41 °FBroken clouds.6 mph70%29.77 "HgN/A
11:20 am39 °FBroken clouds.5 mph75%29.77 "HgN/A
10:50 am39 °FBroken clouds.5 mph75%29.74 "HgN/A
10:20 am37 °FPartly sunny.3 mph81%29.74 "HgN/A
9:50 am36 °FBroken clouds.3 mph87%29.74 "HgN/A
9:20 am36 °FPartly sunny.2 mph87%29.74 "HgN/A
8:50 am34 °FScattered clouds.3 mph87%29.74 "HgN/A
8:20 am32 °FScattered clouds.3 mph93%29.74 "HgN/A
7:50 am32 °FPartly sunny.2 mph93%29.74 "HgN/A
7:20 am32 °FChilly.1 mph87%29.74 "HgN/A
6:50 am30 °FChilly.3 mph86%29.74 "HgN/A
6:20 am28 °FChilly.2 mph93%29.74 "HgN/A
5:50 am27 °FChilly.2 mph93%29.74 "HgN/A
5:20 am27 °FChilly.3 mph93%29.74 "HgN/A
4:50 am27 °FChilly.2 mph100%29.74 "HgN/A
4:20 am27 °FChilly.2 mph100%29.74 "HgN/A
3:20 am27 °FChilly.1 mph100%29.74 "HgN/A
2:50 am28 °FChilly.3 mph100%29.74 "HgN/A
2:20 am28 °FChilly.2 mph93%29.74 "HgN/A
1:50 am28 °FChilly.2 mph93%29.74 "HgN/A
1:20 am30 °FChilly.2 mph93%29.74 "HgN/A
12:50 am32 °FClear.2 mph80%29.77 "Hg10 mi
12:20 am32 °FClear.2 mph80%29.77 "Hg10 mi
11:20 pm
Wed, Apr 26
39 °FClear.6 mph65%29.77 "Hg10 mi
10:50 pm39 °FClear.5 mph61%29.77 "Hg10 mi
10:20 pm39 °FClear.5 mph61%29.77 "Hg10 mi
9:50 pm41 °FClear.3 mph57%29.77 "Hg10 mi
9:20 pm41 °FClear.6 mph57%29.77 "Hg10 mi
8:50 pm43 °FPassing clouds.5 mph53%29.77 "HgN/A
8:20 pm43 °FScattered showers. Passing clouds.7 mph53%29.77 "HgN/A
7:50 pm45 °FScattered showers. Passing clouds.10 mph46%29.77 "HgN/A
7:20 pm46 °FPassing clouds.7 mph40%29.77 "HgN/A
6:20 pm48 °FPassing clouds.9 mph37%29.77 "HgN/A
5:50 pm46 °FScattered showers. Cloudy.12 mph43%29.77 "HgN/A
5:20 pm46 °FPassing clouds.14 mph43%29.77 "HgN/A
4:50 pm48 °FPassing clouds.14 mph34%29.77 "HgN/A
4:20 pm50 °FPassing clouds.9 mph28%29.77 "HgN/A
3:50 pm50 °FPassing clouds.9 mph30%29.77 "HgN/A
3:20 pm50 °FPassing clouds.10 mph30%29.77 "HgN/A
2:50 pm48 °FSunny.7 mph29%29.77 "Hg10 mi
2:20 pm48 °FSunny.14 mph29%29.77 "Hg10 mi
1:50 pm48 °FPassing clouds.14 mph29%29.77 "HgN/A
1:20 pm46 °FPassing clouds.12 mph32%29.77 "HgN/A
Weather by CustomWeather, © 2017

See weather overviewHow to use our weather pages